EW7146 Weather Reports


time (UTC)temp
F
wind
direction
speed
knots
gust
knots
rain 1hr
in
rain 24hr
in
rain mn
in
humidity
%
barometer
mb
20260905213706 68 28 3.5 8.7 0.00 0.00 0.00 37 1029.3
20260905213204 67 39 5.2 8.7 0.00 0.00 0.00 38 1029.3
20260905212709 67 39 4.3 7.8 0.00 0.00 0.00 39 1029.4
20260905212207 67 47 3.5 8.7 0.00 0.00 0.00 39 1029.4
20260905211707 67 52 3.5 10.4 0.00 0.00 0.00 39 1029.3
20260905211207 67 61 5.2 10.4 0.00 0.00 0.00 40 1029.5
20260905210940 67 71 5.2 10.4 0.00 0.00 0.00 38 1029.4
20260905210207 68 52 5.2 10.4 0.00 0.00 0.00 39 1029.4
20260905205707 68 65 3.5 10.4 0.00 0.00 0.00 40 1029.4
20260905205207 68 124 4.3 10.4 0.00 0.00 0.00 42 1029.3
20260905204707 68 118 3.5 10.4 0.00 0.00 0.00 42 1029.3
20260905204213 68 134 7.0 13.0 0.00 0.00 0.00 41 1029.3
20260905203708 69 117 5.2 13.0 0.00 0.00 0.00 40 1029.3
20260905203206 70 100 5.2 13.0 0.00 0.00 0.00 40 1029.2
20260905202706 69 58 7.8 13.0 0.00 0.00 0.00 39 1029.2
20260905202206 68 103 4.3 8.7 0.00 0.00 0.00 38 1029.1
20260905201707 68 137 3.5 8.7 0.00 0.00 0.00 36 1029.2
20260905201206 68 124 2.6 8.7 0.00 0.00 0.00 36 1029.1
20260905200706 68 94 5.2 8.7 0.00 0.00 0.00 36 1029.1
20260905200205 69 104 2.6 7.8 0.00 0.00 0.00 36 1029.2
20260905195705 68 121 3.5 7.8 0.00 0.00 0.00 39 1029.1
20260905195205 68 109 4.3 9.6 0.00 0.00 0.00 38 1029.1
20260905194705 68 148 5.2 9.6 0.00 0.00 0.00 38 1029.2
20260905194205 68 85 3.5 7.8 0.00 0.00 0.00 39 1029.1
20260905193705 68 96 3.5 7.8 0.00 0.00 0.00 38 1029.2
20260905193205 69 94 3.5 7.8 0.00 0.00 0.00 38 1029.3
20260905192705 68 93 3.5 8.7 0.00 0.00 0.00 38 1029.3
20260905192206 68 49 4.3 8.7 0.00 0.00 0.00 39 1029.3
20260905191916 67 73 4.3 5.2 0.00 0.00 0.00 43 1029.4
20260905191801 68 103 1.7 6.1 0.00 0.00 0.00 41 1029.4
20260905190704 67 75 0.9 5.2 0.00 0.00 0.00 43 1029.4
20260905190204 67 102 3.5 5.2 0.00 0.00 0.00 42 1029.6
20260905185704 67 76 2.6 5.2 0.00 0.00 0.00 44 1029.6
20260905185204 66 73 0.9 5.2 0.00 0.00 0.00 46 1029.6
20260905184704 66 42 3.5 5.2 0.00 0.00 0.00 46 1029.7
20260905184423 66 106 1.7 5.2 0.00 0.00 0.00 47 1029.6
20260905183705 65 104 3.5 5.2 0.00 0.00 0.00 47 1029.8
20260905183203 65 90 0.9 4.3 0.00 0.00 0.00 45 1029.8
20260905182703 65 89 1.7 4.3 0.00 0.00 0.00 47 1029.9
20260905182203 65 55 1.7 3.5 0.00 0.00 0.00 49 1030.0
20260905181703 64 121 1.7 4.3 0.00 0.00 0.00 49 1030.0
20260905181204 64 100 2.6 4.3 0.00 0.00 0.00 49 1030.1
20260905180924 64 118 0.9 3.5 0.00 0.00 0.00 49 1030.1
20260905180203 63 82 0.9 2.6 0.00 0.00 0.00 50 1030.2
20260905175702 63 58 0.9 5.2 0.00 0.00 0.00 52 1030.3
20260905175205 62 87 1.7 5.2 0.00 0.00 0.00 53 1030.4
20260905174703 62 151 2.6 4.3 0.00 0.00 0.00 52 1030.3
20260905174203 63 109 1.7 3.5 0.00 0.00 0.00 51 1030.4
20260905174152 62 83 0.0 0.0 0.00 0.00 0.00 52 1030.6
20260905173202 61 147 0.0 0.0 0.00 0.00 0.00 51 1030.6
20260905172704 60 310 0.0 0.0 0.00 0.00 0.00 55 1030.6
20260905172202 60 18 0.0 0.0 0.00 0.00 0.00 55 1030.7
20260905171707 59 121 0.0 0.0 0.00 0.00 0.00 58 1030.8
20260905171202 58 142 0.0 0.0 0.00 0.00 0.00 57 1030.9
20260905170703 58 121 0.0 0.0 0.00 0.00 0.00 59 1031.0
20260905170202 58 87 0.0 0.0 0.00 0.00 0.00 60 1031.0
20260905165929 58 44 0.0 0.0 0.00 0.00 0.00 59 1031.1
20260905165206 58 309 0.0 0.0 0.00 0.00 0.00 61 1031.1
20260905164702 57 92 0.0 0.0 0.00 0.00 0.00 61 1031.1
20260905164201 57 4 0.0 0.0 0.00 0.00 0.00 61 1031.1
20260905163701 56 337 0.0 0.0 0.00 0.00 0.00 62 1031.2
20260905163425 56 343 0.0 0.0 0.00 0.00 0.00 62 1031.2
20260905162700 56 252 0.0 0.9 0.00 0.00 0.00 65 1031.2
20260905162202 55 251 0.0 0.9 0.00 0.00 0.00 65 1031.4
20260905161700 55 255 0.0 0.0 0.00 0.00 0.00 66 1031.4
20260905161200 55 255 0.0 0.0 0.00 0.00 0.00 68 1031.4
20260905160923 55 255 0.0 0.0 0.00 0.00 0.00 69 1031.5
20260905160200 54 258 0.0 0.0 0.00 0.00 0.00 71 1031.5
20260905155701 53 258 0.0 0.0 0.00 0.00 0.00 71 1031.5
20260905155432 53 258 0.0 0.9 0.00 0.00 0.00 73 1031.6
20260905154701 52 257 0.0 0.9 0.00 0.00 0.00 74 1031.5
20260905154200 52 258 0.0 0.9 0.00 0.00 0.00 72 1031.5
20260905153701 52 250 0.0 0.9 0.00 0.00 0.00 73 1031.5
20260905153419 51 250 0.0 0.9 0.00 0.00 0.00 79 1031.5
20260905152659 49 250 0.0 0.9 0.00 0.00 0.00 79 1031.5
20260905152427 49 250 0.0 0.0 0.00 0.00 0.00 81 1031.5
20260905151659 48 250 0.0 0.0 0.00 0.00 0.00 83 1031.6
20260905151421 47 251 0.0 0.0 0.00 0.00 0.00 83 1031.6
20260905150659 47 247 0.0 0.9 0.00 0.00 0.00 84 1031.6
20260905150429 47 247 0.0 0.9 0.00 0.00 0.00 85 1031.7
20260905145658 47 247 0.0 0.0 0.00 0.00 0.00 90 1031.5
20260905145159 45 247 0.0 0.0 0.00 0.00 0.00 94 1031.6
20260905144659 43 247 0.0 0.9 0.00 0.00 0.00 93 1031.6
20260905144158 42 247 0.0 0.9 0.00 0.00 0.00 93 1031.6
20260905143658 42 247 0.0 0.0 0.00 0.00 0.00 93 1031.5
20260905143158 41 247 0.0 0.0 0.00 0.00 0.00 93 1031.5
20260905142659 41 247 0.0 0.0 0.00 0.00 0.00 93 1031.5
20260905142157 41 247 0.0 0.0 0.00 0.00 0.00 94 1031.5
20260905141701 41 247 0.0 0.0 0.00 0.00 0.00 94 1031.5
20260905141158 41 247 0.0 0.0 0.00 0.00 0.00 94 1031.4
20260905140659 40 247 0.0 0.0 0.00 0.00 0.00 94 1031.5
20260905140202 40 247 0.0 0.0 0.00 0.00 0.00 94 1031.3
20260905135657 40 247 0.0 0.0 0.00 0.00 0.00 93 1031.3
20260905135157 40 247 0.0 0.0 0.00 0.00 0.00 93 1031.4
20260905134657 40 247 0.0 0.0 0.00 0.00 0.00 93 1031.4
20260905134201 40 247 0.0 0.0 0.00 0.00 0.00 93 1031.2
20260905133918 40 247 0.0 0.0 0.00 0.00 0.00 93 1031.2
20260905133157 40 247 0.0 0.9 0.00 0.00 0.00 93 1031.3
20260905132656 40 247 0.0 0.9 0.00 0.00 0.00 93 1031.2
20260905132420 40 247 0.0 0.9 0.00 0.00 0.00 93 1031.2
20260905131656 40 213 0.0 0.0 0.00 0.00 0.00 92 1031.2
20260905131416 41 213 0.0 0.0 0.00 0.00 0.00 93 1031.2
20260905130657 41 213 0.0 0.0 0.00 0.00 0.00 93 1031.1
20260905130156 41 213 0.0 0.0 0.00 0.00 0.00 92 1031.1
20260905125657 41 213 0.0 0.0 0.00 0.00 0.00 92 1031.1
20260905125156 41 213 0.0 0.0 0.00 0.00 0.00 92 1031.0
20260905124926 41 213 0.0 0.0 0.00 0.01 0.00 92 1031.1
20260905124156 41 213 0.0 0.0 0.00 0.01 0.00 92 1031.0
20260905123657 42 213 0.0 0.0 0.00 0.01 0.00 91 1031.1
20260905123422 42 213 0.0 0.0 0.00 0.01 0.00 92 1031.0
20260905122655 42 213 0.0 0.0 0.00 0.01 0.00 92 1031.0
20260905122156 42 213 0.0 0.0 0.00 0.02 0.00 93 1031.0
20260905121655 42 213 0.0 0.0 0.00 0.02 0.00 93 1031.1
20260905121414 41 212 0.0 0.0 0.00 0.03 0.00 92 1031.1
20260905120655 41 213 0.0 0.0 0.00 0.03 0.00 92 1031.1
20260905120156 42 212 0.0 0.0 0.00 0.04 0.00 92 1031.0
20260905115655 42 213 0.0 0.0 0.00 0.06 0.00 92 1031.0
20260905115155 42 213 0.0 0.0 0.00 0.06 0.00 92 1031.0
20260905115135 42 212 0.0 0.0 0.00 0.07 0.00 92 1030.9
20260905114155 42 213 0.0 0.0 0.00 0.08 0.00 92 1030.9
20260905113655 42 212 0.0 0.0 0.00 0.08 0.00 92 1030.9
20260905113414 42 213 0.0 0.0 0.00 0.09 0.00 92 1030.9
20260905112655 42 213 0.0 0.0 0.00 0.09 0.00 92 1030.8
20260905112154 42 213 0.0 0.0 0.00 0.09 0.00 92 1030.8
20260905111655 42 212 0.0 0.0 0.00 0.10 0.00 92 1030.8
20260905111154 42 212 0.0 0.0 0.00 0.10 0.00 92 1030.8
20260905110918 42 213 0.0 0.0 0.00 0.10 0.00 92 1030.8
20260905110421 42 213 0.0 0.0 0.00 0.11 0.00 91 1030.8
20260905105654 42 212 0.0 0.0 0.00 0.12 0.00 91 1030.8
20260905105154 42 212 0.0 0.0 0.00 0.12 0.00 91 1030.8
20260905104653 42 212 0.0 0.0 0.00 0.12 0.00 91 1030.7
20260905104154 42 212 0.0 0.0 0.00 0.12 0.00 91 1030.7
20260905103653 42 212 0.0 0.0 0.00 0.12 0.00 92 1030.8
20260905103154 42 213 0.0 0.0 0.00 0.13 0.00 92 1030.7
20260905102915 42 212 0.0 0.0 0.00 0.13 0.00 91 1030.7
20260905102415 42 213 0.0 0.0 0.00 0.13 0.00 91 1030.7
20260905101652 42 212 0.0 0.0 0.00 0.13 0.00 91 1030.7
20260905101152 42 212 0.0 0.0 0.00 0.13 0.00 91 1030.6
20260905100914 42 212 0.0 0.0 0.00 0.13 0.00 91 1030.4
20260905100152 42 212 0.0 0.0 0.00 0.13 0.00 91 1030.6
20260905095654 42 212 0.0 0.0 0.00 0.13 0.00 90 1030.3
20260905095154 42 212 0.0 0.0 0.00 0.13 0.00 90 1030.3
20260905094653 42 212 0.0 0.0 0.00 0.13 0.00 89 1030.3
20260905094152 42 212 0.0 0.0 0.00 0.13 0.00 89 1030.3
20260905093656 43 212 0.0 0.0 0.00 0.13 0.00 88 1030.3
20260905093151 43 212 0.0 0.0 0.00 0.13 0.00 87 1030.3
20260905092651 43 212 0.0 0.0 0.00 0.13 0.00 88 1030.3
20260905092152 43 212 0.0 0.0 0.00 0.13 0.00 89 1030.1
20260905091650 43 212 0.0 0.0 0.00 0.13 0.00 90 1030.2
20260905091358 43 212 0.0 0.0 0.00 0.13 0.00 89 1030.0
20260905091249 43 212 0.0 0.0 0.00 0.13 0.00 89 1029.9
20260905090152 43 212 0.0 0.0 0.00 0.13 0.00 88 1030.0
20260905085650 44 212 0.0 0.0 0.00 0.13 0.00 86 1029.9
20260905085152 44 212 0.0 0.0 0.00 0.13 0.00 86 1029.9
20260905084651 44 212 0.0 0.0 0.00 0.13 0.00 87 1029.8
20260905084156 44 212 0.0 0.0 0.00 0.13 0.00 86 1029.7
20260905084150 44 212 0.0 0.0 0.00 0.13 0.00 86 1029.9
20260905083411 44 212 0.0 0.0 0.00 0.13 0.00 86 1029.7
20260905082917 44 212 0.0 0.0 0.00 0.13 0.00 86 1029.6
20260905082150 45 212 0.0 0.0 0.00 0.13 0.00 85 1029.6
20260905081655 45 212 0.0 0.0 0.00 0.13 0.00 85 1029.5
20260905081410 45 212 0.0 0.0 0.00 0.13 0.00 84 1029.5
20260905080649 46 212 0.0 0.0 0.00 0.13 0.00 82 1029.5
20260905080626 47 212 0.0 0.0 0.00 0.13 0.00 82 1029.5
20260905075649 47 212 0.0 0.0 0.00 0.13 0.00 81 1029.4
20260905075407 47 212 0.0 0.9 0.00 0.13 0.00 81 1029.4
20260905074649 47 216 0.0 0.9 0.00 0.13 0.00 81 1029.4
20260905074422 47 216 0.0 0.9 0.00 0.13 0.00 81 1029.4
20260905073648 47 203 0.0 0.9 0.00 0.13 0.00 82 1029.4
20260905073205 47 217 0.0 0.0 0.00 0.13 0.00 81 1029.3
20260905073156 47 217 0.0 0.0 0.00 0.13 0.00 81 1029.4
20260905072148 47 217 0.0 1.7 0.00 0.13 0.00 81 1029.3
20260905072134 47 216 1.7 1.7 0.00 0.13 0.00 81 1029.3
20260905071149 47 220 0.0 0.0 0.00 0.13 0.00 81 1029.2
20260905070913 47 244 0.0 0.0 0.00 0.13 0.00 81 1029.1
20260905070147 48 244 0.0 0.0 0.00 0.13 0.00 80 1029.1
20260905065649 48 244 0.0 1.7 0.00 0.13 0.13 79 1029.1
20260905065148 48 244 0.9 1.7 0.00 0.13 0.13 80 1029.1
20260905064652 48 206 0.0 1.7 0.00 0.13 0.13 80 1029.1
20260905064150 48 224 0.0 0.0 0.00 0.13 0.13 79 1029.1
20260905063914 48 224 0.0 0.0 0.00 0.13 0.13 78 1029.1
20260905063148 49 224 0.0 0.0 0.00 0.13 0.13 77 1029.1
20260905062647 50 227 0.0 0.9 0.00 0.13 0.13 76 1028.9
20260905062157 50 212 0.0 0.9 0.00 0.13 0.13 76 1028.9
20260905061647 50 212 0.0 0.0 0.00 0.13 0.13 76 1028.9
20260905061149 50 212 0.0 0.9 0.00 0.13 0.13 76 1028.8
20260905060647 50 212 0.0 0.9 0.00 0.13 0.13 76 1028.8
20260905060148 50 216 0.0 0.0 0.00 0.13 0.13 76 1028.8
20260905055702 50 193 0.0 1.7 0.00 0.13 0.13 75 1028.8
20260905055647 50 193 0.9 1.7 0.00 0.13 0.13 75 1028.8
20260905054645 50 199 0.0 0.0 0.00 0.13 0.13 76 1028.8
20260905054145 50 210 0.0 0.0 0.00 0.13 0.13 76 1028.7
20260905053907 50 217 0.0 2.6 0.00 0.13 0.13 76 1028.8
20260905053146 51 168 0.9 2.6 0.00 0.13 0.13 76 1028.8
20260905052647 51 172 0.9 2.6 0.00 0.13 0.13 76 1028.8
20260905052145 51 257 0.0 0.9 0.00 0.13 0.13 75 1028.8
20260905051645 51 257 0.0 1.7 0.00 0.13 0.13 75 1028.7
20260905051145 51 257 0.0 2.6 0.00 0.13 0.13 74 1028.7
20260905051129 51 223 1.7 2.6 0.00 0.13 0.13 74 1028.7
20260905050146 51 172 1.7 1.7 0.00 0.13 0.13 73 1028.7
20260905050134 52 197 0.0 1.7 0.00 0.13 0.13 73 1028.7
20260905045146 52 223 0.0 2.6 0.00 0.13 0.13 72 1028.7
20260905044646 52 223 1.7 2.6 0.00 0.13 0.13 73 1028.7
20260905044409 52 233 0.0 0.0 0.00 0.13 0.13 72 1028.6
20260905043644 52 171 0.0 0.0 0.00 0.13 0.13 72 1028.6
20260905043144 52 168 0.0 0.0 0.00 0.13 0.13 72 1028.5
20260905042645 53 168 0.0 0.0 0.00 0.13 0.13 71 1028.5
20260905042144 53 200 0.0 0.0 0.00 0.13 0.13 71 1028.5
20260905041644 53 219 0.0 0.0 0.00 0.13 0.13 71 1028.5
20260905041144 53 210 0.0 0.0 0.00 0.13 0.13 69 1028.4
20260905040646 54 227 0.0 0.0 0.00 0.13 0.13 70 1028.3
20260905040409 54 235 0.0 0.0 0.00 0.13 0.13 70 1028.2
20260905035645 54 227 0.0 0.0 0.00 0.13 0.13 69 1028.3
20260905035143 54 226 0.0 0.0 0.00 0.13 0.13 66 1028.3
20260905034644 54 226 0.0 0.0 0.00 0.13 0.13 67 1028.2
20260905034144 54 226 0.0 0.0 0.00 0.13 0.13 67 1028.1
20260905033644 54 226 0.0 0.0 0.00 0.13 0.13 67 1028.1
20260905033144 54 226 0.0 0.0 0.00 0.13 0.13 66 1028.1
20260905032644 54 213 0.0 0.0 0.00 0.13 0.13 66 1028.1
20260905032145 54 192 0.0 0.0 0.00 0.13 0.13 66 1028.1
20260905031903 54 192 0.0 0.0 0.00 0.13 0.13 67 1028.0
20260905031144 54 214 0.0 0.0 0.00 0.13 0.13 67 1027.9
20260905030643 54 221 0.0 0.0 0.00 0.13 0.13 67 1027.8
20260905030142 54 221 0.0 0.0 0.00 0.13 0.13 67 1027.7
20260905025643 55 245 0.0 0.0 0.00 0.13 0.13 66 1027.6
20260905025142 55 247 0.0 0.0 0.00 0.13 0.13 64 1027.5
20260905025124 56 247 0.0 0.0 0.00 0.13 0.13 64 1027.3
20260905024407 56 247 0.0 0.0 0.00 0.13 0.13 65 1027.3
20260905023643 56 189 0.0 0.0 0.00 0.13 0.13 64 1027.3
20260905023142 56 189 0.0 0.0 0.00 0.13 0.13 67 1027.2
20260905022641 56 189 0.0 0.0 0.00 0.13 0.13 69 1027.2
20260905022142 56 189 0.0 0.0 0.00 0.13 0.13 69 1027.2
20260905021647 57 110 0.0 0.9 0.00 0.13 0.13 70 1027.2
20260905021142 57 216 0.0 0.9 0.00 0.13 0.13 69 1027.1
20260905020645 58 216 0.0 0.0 0.00 0.13 0.13 68 1026.9
20260905020142 59 162 0.0 0.0 0.00 0.13 0.13 62 1026.9
20260905015641 59 162 0.0 0.0 0.00 0.13 0.13 57 1026.9
20260905015142 60 162 0.0 0.0 0.00 0.13 0.13 60 1026.8
20260905014902 60 162 0.0 0.0 0.00 0.13 0.13 61 1026.8
20260905014141 61 162 0.0 0.0 0.00 0.13 0.13 59 1026.7
20260905013641 61 162 0.0 0.0 0.00 0.13 0.13 57 1026.6
20260905013402 62 162 0.0 0.0 0.00 0.13 0.13 59 1026.6
20260905012641 62 162 0.0 0.0 0.00 0.13 0.13 56 1026.6
20260905012141 63 162 0.0 0.0 0.00 0.13 0.13 55 1026.5
20260905011641 64 162 0.0 0.0 0.00 0.13 0.13 52 1026.5
20260905011140 65 162 0.0 2.6 0.00 0.13 0.13 45 1026.5
20260905010642 65 162 0.0 2.6 0.00 0.13 0.13 43 1026.5
20260905010140 65 162 0.0 2.6 0.00 0.13 0.13 43 1026.3
20260905005641 65 147 1.7 2.6 0.00 0.13 0.13 41 1026.4
20260905005137 65 138 1.7 2.6 0.00 0.13 0.13 42 1026.3
20260905004902 65 173 0.9 3.5 0.00 0.13 0.13 41 1026.3
20260905004143 65 168 1.7 3.5 0.00 0.13 0.13 40 1026.3
20260905003639 65 158 2.6 4.3 0.00 0.13 0.13 41 1026.3
20260905003140 66 140 1.7 5.2 0.00 0.13 0.13 40 1026.2
20260905002644 66 117 0.9 5.2 0.00 0.13 0.13 41 1026.2
20260905002139 66 118 2.6 5.2 0.00 0.13 0.13 40 1026.2
20260905001640 66 104 1.7 6.1 0.00 0.13 0.13 41 1026.2
20260905001138 65 102 2.6 6.1 0.00 0.13 0.13 42 1026.2
20260905000634 65 117 1.7 5.2 0.00 0.13 0.13 42 1026.1
20260905000135 66 128 1.7 6.1 0.00 0.13 0.13 41 1026.1
20260904235906 66 124 1.7 6.1 0.00 0.13 0.13 41 1026.0
20260904235138 67 114 1.7 6.1 0.00 0.13 0.13 40 1026.1
20260904234640 67 141 2.6 5.2 0.00 0.13 0.13 39 1026.0
20260904234139 67 133 2.6 5.2 0.00 0.13 0.13 40 1025.8
20260904233638 66 61 1.7 5.2 0.00 0.13 0.13 42 1026.0
20260904233138 66 86 1.7 6.1 0.00 0.13 0.13 42 1026.0
20260904232638 65 125 1.7 6.1 0.00 0.13 0.13 42 1026.0
20260904232138 65 113 1.7 5.2 0.00 0.13 0.13 42 1026.0
20260904231637 65 97 3.5 4.3 0.00 0.13 0.13 41 1026.0
20260904231144 65 104 2.6 6.1 0.00 0.13 0.13 41 1025.8
20260904230854 65 109 1.7 7.8 0.00 0.13 0.13 41 1025.8
20260904225636 65 176 2.6 6.1 0.00 0.13 0.13 44 1025.8
20260904225137 65 118 3.5 5.2 0.00 0.13 0.13 43 1026.0
20260904224637 65 118 0.9 4.3 0.00 0.13 0.13 43 1026.0
20260904224137 65 104 1.7 7.8 0.00 0.13 0.13 42 1026.1
20260904223635 65 65 0.9 7.8 0.00 0.13 0.13 44 1026.1
20260904223136 65 127 0.9 11.3 0.00 0.13 0.13 45 1026.1
20260904222638 65 73 2.6 11.3 0.00 0.13 0.13 43 1026.0
20260904222136 65 113 4.3 10.4 0.00 0.13 0.13 43 1025.8
20260904221637 66 130 3.5 9.6 0.00 0.13 0.13 42 1026.0
20260904221626 67 142 6.1 12.2 0.00 0.13 0.13 42 1026.0
20260904220636 67 99 3.5 13.0 0.00 0.13 0.13 42 1026.0
20260904220359 67 148 5.2 13.0 0.00 0.13 0.13 43 1026.0
20260904215633 66 131 3.5 12.2 0.00 0.13 0.13 44 1026.0
20260904215352 67 100 4.3 12.2 0.00 0.13 0.13 45 1026.0
20260904214636 67 107 6.1 11.3 0.00 0.13 0.13 44 1026.0